Location: Newark
(21.1200°N, 73.4000°E)
Time: 04:16:51
(UTC+00:00)

Explorer 11/Cluster Stage 4 - Pass Details

Date: 25 January 2020
Orbit: 467 x 1259 km, 28.8° (Epoch: 16 February)

Event Time Altitude Azimuth Distance (km) Brightness Sun altitude
Rises 04:47:49 0° 198° (SSW) 3,819 10.4 35.4°
Reaches altitude 10° 04:51:55 10° 175° (S) 3,008 10.4 36.1°
Maximum altitude 04:55:51 15° 144° (SE) 2,760 10.9 36.7°
Drops below altitude 10° 04:59:58 10° 113° (ESE) 3,191 10.7 37.4°
Sets 05:04:31 0° 92° (E) 4,197 10.8 38.1°
